Weather History for Charlottesville, VA

Change the Weather History Date:

Saturday, October 13, 2012

  Actual Average Record
Temperature  
Mean Temperature 49 °F 57 °F  
Max Temperature 62 °F 69 °F 91 °F (1954)
Min Temperature 35 °F 45 °F 30 °F (2006)
Degree Days  
Heating Degree Days 16 9  
Month to date heating degree days 101 90  
Since 1 July heating degree days 140 148  
Cooling Degree Days 0 0  
Month to date cooling degree days 17 12  
Year to date cooling degree days 1601 1033  
Moisture  
Dew Point 36 °F    
Average Humidity 66    
Maximum Humidity 92    
Minimum Humidity 39    
Precipitation  
Precipitation 0.00 in 0.10 in 0.33 in (2004)
Month to date precipitation 1.85 1.42  
Year to date precipitation 30.73 34.04  
Sea Level Pressure  
Sea Level Pressure 30.43 in    
Wind  
Wind Speed 4 mph (SSE)    
Max Wind Speed 14 mph    
Max Gust Speed 18 mph    
Visibility 10 miles    
Events      
T = Trace of Precipitation, MM = Missing Value Source: NWS Daily Summary

Daily Weather History Graph

Daily Weather History Graph

Search for Another Location

Airport:

Trip Planner

Search our weather history database for the weather conditions in past years. The results will help you decide how hot, cold, wet, or windy it might be!

Date:

Astronomy

Oct. 13, 2012 Rise Set
Actual Time 7:21 AM EDT 6:38 PM EDT
Civil Twilight 6:54 AM EDT 7:04 PM EDT
Nautical Twilight 6:23 AM EDT 7:35 PM EDT
Astronomical Twilight 5:53 AM EDT 8:05 PM EDT
Moon 5:10 AM EDT (10/13) 5:19 PM EDT (10/13)
Length of Visible Light 12h 10m
Length of Day
11h 17m
Waning Crescent, 5% of the Moon is Illuminated
Oct 13
Waning Crescent
Oct 15
New
Oct 21
First Quarter
Oct 29
Full
Nov 6
Last Quarter

Hourly Weather History & Observations

Time (EDT) Temp. Windchill Dew Point Humidity Pressure Visibility Wind Dir Wind Speed Gust Speed Precip Events Conditions
12:53 AM 41.0 °F - 37.9 °F 89% 30.43 in 10.0 mi Calm Calm - N/A   Clear
1:53 AM 39.9 °F - 37.0 °F 89% 30.43 in 10.0 mi Calm Calm - N/A   Clear
2:53 AM 41.0 °F 38.0 °F 36.0 °F 82% 30.43 in 10.0 mi North 4.6 mph - N/A   Clear
3:53 AM 37.9 °F - 34.0 °F 86% 30.44 in 10.0 mi Calm Calm - N/A   Clear
4:53 AM 37.9 °F - 32.0 °F 79% 30.46 in 10.0 mi Calm Calm - N/A   Clear
5:53 AM 36.0 °F - 33.1 °F 89% 30.48 in 10.0 mi Calm Calm - N/A   Clear
6:53 AM 37.0 °F - 34.0 °F 89% 30.49 in 10.0 mi Calm Calm - N/A   Clear
7:53 AM 37.0 °F - 34.0 °F 89% 30.51 in 10.0 mi Calm Calm - N/A   Clear
8:53 AM 44.1 °F - 35.1 °F 71% 30.52 in 10.0 mi Calm Calm - N/A   Clear
9:53 AM 46.9 °F - 32.0 °F 56% 30.52 in 10.0 mi NNE 4.6 mph - N/A   Clear
10:53 AM 50.0 °F - 32.0 °F 50% 30.51 in 10.0 mi Variable 3.5 mph - N/A   Clear
11:53 AM 53.1 °F - 34.0 °F 48% 30.50 in 10.0 mi South 8.1 mph - N/A   Clear
12:53 PM 55.9 °F - 34.0 °F 44% 30.45 in 10.0 mi South 9.2 mph - N/A   Clear
2:53 PM 60.1 °F - 35.1 °F 39% 30.38 in 10.0 mi South 11.5 mph - N/A   Clear
3:53 PM 60.1 °F - 36.0 °F 41% 30.37 in 10.0 mi South 8.1 mph 17.3 mph N/A   Clear
4:53 PM 61.0 °F - 37.0 °F 41% 30.35 in 10.0 mi South 8.1 mph - N/A   Clear
5:53 PM 59.0 °F - 37.9 °F 46% 30.35 in 10.0 mi SSE 6.9 mph - N/A   Clear
6:53 PM 54.0 °F - 39.0 °F 57% 30.35 in 10.0 mi South 4.6 mph - N/A   Clear
8:53 PM 52.0 °F - 41.0 °F 66% 30.35 in 10.0 mi Calm Calm - N/A   Clear
9:53 PM 46.0 °F - 41.0 °F 83% 30.35 in 10.0 mi Calm Calm - N/A   Clear
10:53 PM 46.0 °F - 41.0 °F 83% 30.33 in 10.0 mi Calm Calm - N/A   Clear